Weather History for Minneapolis Flying Cloud, MN

Change the Weather History Date:

Friday, May 30, 2014

  Actual Average Record
Temperature  
Mean Temperature 76 °F -  
Max Temperature 90 °F 69 °F 90 °F (2014)
Min Temperature 64 °F 50 °F 48 °F (2001)
Cooling Degree Days 11    
Growing Degree Days 26 (Base 50)    
Moisture  
Dew Point 56 °F    
Average Humidity 50    
Maximum Humidity 78    
Minimum Humidity 36    
Precipitation  
Precipitation 0.00 in - - ()
Sea Level Pressure  
Sea Level Pressure 30.06 in    
Wind  
Wind Speed 7 mph (ESE)    
Max Wind Speed 15 mph    
Max Gust Speed 18 mph    
Visibility 10 miles    
Events      
Averages and records for this station are not official NWS values.
T = Trace of Precipitation, MM = Missing Value Source: NWS Daily Summary

Daily Weather History Graph

Daily Weather History Graph

Search for Another Location

Airport:

Trip Planner

Search our weather history database for the weather conditions in past years. The results will help you decide how hot, cold, wet, or windy it might be!

Date:

Astronomy

May. 30, 2014 Rise Set
Actual Time 5:32 AM CDT 8:51 PM CDT
Civil Twilight 4:56 AM CDT 9:27 PM CDT
Nautical Twilight 4:09 AM CDT 10:14 PM CDT
Astronomical Twilight 3:11 AM CDT 11:12 PM CDT
Moon 7:19 AM CDT (5/30) 10:25 PM CDT (5/30)
Length of Visible Light 16h 30m
Length of Day
15h 18m
Waxing Crescent, 4% of the Moon is Illuminated
May 30
Waxing Crescent
Jun 5
First Quarter
Jun 12
Full
Jun 19
Last Quarter
Jun 27
New

Hourly Weather History & Observations

Time (CDT) Temp. Heat Index Dew Point Humidity Pressure Visibility Wind Dir Wind Speed Gust Speed Precip Events Conditions
12:53 AM 71.1 °F - 45.0 °F 39% 30.05 in 10.0 mi ESE 6.9 mph - N/A   Clear
1:53 AM 70.0 °F - 48.9 °F 47% 30.05 in 10.0 mi SSE 8.1 mph - N/A   Clear
2:53 AM 69.1 °F - 51.1 °F 53% 30.06 in 10.0 mi Variable 4.6 mph - N/A   Clear
3:53 AM 68.0 °F - 52.0 °F 56% 30.07 in 10.0 mi ESE 3.5 mph - N/A   Clear
4:53 AM 64.9 °F - 54.0 °F 68% 30.09 in 10.0 mi East 3.5 mph - N/A   Clear
5:53 AM 64.0 °F - 57.0 °F 78% 30.09 in 10.0 mi East 4.6 mph - N/A   Clear
6:53 AM 69.1 °F - 55.9 °F 63% 30.11 in 10.0 mi East 5.8 mph - N/A   Clear
7:53 AM 71.1 °F - 57.0 °F 61% 30.11 in 10.0 mi SE 6.9 mph - N/A   Clear
8:53 AM 75.0 °F - 59.0 °F 57% 30.12 in 10.0 mi SSE 5.8 mph - N/A   Clear
9:53 AM 78.1 °F - 61.0 °F 56% 30.11 in 10.0 mi SE 8.1 mph - N/A   Clear
10:53 AM 81.0 °F 82.2 °F 63.0 °F 54% 30.10 in 10.0 mi ESE 5.8 mph - N/A   Clear
11:53 AM 84.9 °F 85.9 °F 63.0 °F 48% 30.10 in 8.0 mi ESE 6.9 mph - N/A   Mostly Cloudy
1:53 PM 88.0 °F 88.4 °F 62.1 °F 42% 30.06 in 10.0 mi SSE 12.7 mph - N/A   Clear
2:53 PM 87.1 °F 86.7 °F 60.1 °F 40% 30.05 in 10.0 mi SE 11.5 mph 18.4 mph N/A   Clear
5:53 PM 88.0 °F 87.6 °F 60.1 °F 39% 30.00 in 10.0 mi ESE 11.5 mph - N/A   Clear
6:53 PM 86.0 °F 85.7 °F 60.1 °F 41% 29.99 in 10.0 mi SE 15.0 mph - N/A   Clear
7:53 PM 86.0 °F 84.9 °F 57.0 °F 37% 29.99 in 9.0 mi ESE 10.4 mph - N/A   Partly Cloudy
8:53 PM 82.9 °F 81.8 °F 53.1 °F 36% 30.00 in 9.0 mi East 9.2 mph - N/A   Clear
9:53 PM 80.1 °F 80.2 °F 55.9 °F 43% 30.02 in 9.0 mi ESE 8.1 mph - N/A   Clear
10:53 PM 78.1 °F - 54.0 °F 43% 30.03 in 10.0 mi SE 9.2 mph - N/A   Scattered Clouds
11:53 PM 78.1 °F - 53.1 °F 42% 30.04 in 10.0 mi SSE 6.9 mph - N/A   Scattered Clouds